Location: Wingville
(42.9917°N, 90.4915°W)
Time: 21:34:00
(UTC+00:00)

LO-87 - Pass Details

Date: 28 June 2022
Orbit: 451 x 466 km, 97.4° (Epoch: 13 August)

Event Time Altitude Azimuth Distance (km) Brightness Sun altitude
Exits shadow 04:37:14 16° 71° (ENE) 1,300 ? -20.7°
Maximum altitude 04:37:27 16° 67° (ENE) 1,297 ? -20.7°
Drops below altitude 10° 04:39:36 10° 28° (NNE) 1,616 ? -20.9°
Sets 04:42:15 0° 6° (N) 2,502 ? -21.0°
